| time (UTC) | temp F | wind direction | speed knots | gust knots | rain 1hr in | rain 24hr in | rain mn in | humidity % | barometer mb |
| 20260508203040 | 70 | 156 | 0.0 | 0.9 | 0.00 | 0.00 | 0.00 | 48 | 1008.6 |
| 20260508201535 | 71 | 157 | 0.0 | 0.9 | 0.00 | 0.00 | 0.00 | 54 | 1009.7 |
| 20260508200043 | 72 | 285 | 0.0 | 0.0 | 0.00 | 0.00 | 0.00 | 56 | 1010.5 |
| 20260508194526 | 73 | 153 | 0.0 | 0.9 | 0.00 | 0.00 | 0.00 | 55 | 1010.4 |
| 20260508193021 | 74 | 177 | 0.0 | 0.9 | 0.00 | 0.00 | 0.00 | 55 | 1010.2 |
| 20260508191519 | 74 | 154 | 0.0 | 1.7 | 0.00 | 0.00 | 0.00 | 56 | 1010.2 |
| 20260508190012 | 74 | 155 | 0.0 | 0.9 | 0.00 | 0.00 | 0.00 | 56 | 1010.5 |
| 20260508184508 | 75 | 151 | 0.0 | 0.9 | 0.00 | 0.00 | 0.00 | 56 | 1010.6 |
| 20260508183004 | 76 | 188 | 0.0 | 0.9 | 0.00 | 0.00 | 0.00 | 56 | 1010.8 |
| 20260508181600 | 76 | 153 | 0.0 | 1.7 | 0.00 | 0.00 | 0.00 | 55 | 1011.0 |
| 20260508180056 | 75 | 152 | 0.0 | 0.9 | 0.00 | 0.00 | 0.00 | 54 | 1010.9 |
| 20260508174550 | 74 | 151 | 0.0 | 0.0 | 0.00 | 0.00 | 0.00 | 54 | 1011.5 |
| 20260508173046 | 73 | 231 | 0.0 | 0.9 | 0.00 | 0.00 | 0.00 | 54 | 1011.7 |
| 20260508171550 | 74 | 98 | 0.0 | 0.9 | 0.00 | 0.00 | 0.00 | 55 | 1012.1 |
| 20260508170038 | 73 | 158 | 0.0 | 0.9 | 0.00 | 0.00 | 0.00 | 54 | 1012.1 |
| 20260508164537 | 71 | 151 | 0.0 | 0.9 | 0.00 | 0.00 | 0.00 | 51 | 1012.3 |
| 20260508163028 | 69 | 145 | 0.0 | 0.0 | 0.00 | 0.00 | 0.00 | 51 | 1012.5 |
| 20260508161524 | 68 | 145 | 0.0 | 0.9 | 0.00 | 0.00 | 0.00 | 48 | 1012.8 |
| 20260508160024 | 67 | 148 | 0.0 | 0.9 | 0.00 | 0.00 | 0.00 | 48 | 1013.2 |
| 20260508154516 | 67 | 145 | 0.0 | 0.9 | 0.00 | 0.00 | 0.00 | 48 | 1013.5 |
| 20260508153011 | 67 | 150 | 0.0 | 0.9 | 0.00 | 0.00 | 0.00 | 48 | 1013.7 |
| 20260508151506 | 67 | 148 | 0.0 | 0.0 | 0.00 | 0.00 | 0.00 | 47 | 1013.6 |
| 20260508150004 | 67 | 95 | 0.0 | 0.0 | 0.00 | 0.00 | 0.00 | 49 | 1013.7 |
| 20260508144558 | 67 | 141 | 0.0 | 0.9 | 0.00 | 0.00 | 0.00 | 49 | 1013.7 |
| 20260508143054 | 67 | 148 | 0.0 | 0.9 | 0.00 | 0.00 | 0.00 | 47 | 1013.8 |
| 20260508141549 | 66 | 140 | 0.0 | 0.9 | 0.00 | 0.00 | 0.00 | 41 | 1013.9 |
| 20260508140044 | 65 | 155 | 0.0 | 0.0 | 0.00 | 0.00 | 0.00 | 28 | 1014.2 |
| 20260508134540 | 64 | 54 | 0.0 | 0.9 | 0.00 | 0.00 | 0.00 | 14 | 1014.1 |
| 20260508133038 | 62 | 166 | 0.0 | 0.0 | 0.00 | 0.00 | 0.00 | 1 | 1013.9 |
| 20260508131531 | 62 | 200 | 0.0 | 0.0 | 0.00 | 0.00 | 0.00 | 1 | 1013.9 |
| 20260508130027 | 61 | 208 | 0.0 | 0.0 | 0.00 | 0.00 | 0.00 | 1 | 1014.1 |
| 20260508124522 | 60 | 208 | 0.0 | 0.0 | 0.00 | 0.00 | 0.00 | 1 | 1014.2 |
| 20260508123019 | 60 | 208 | 0.0 | 0.0 | 0.00 | 0.00 | 0.00 | 1 | 1014.2 |
| 20260508121514 | 60 | 208 | 0.0 | 0.0 | 0.00 | 0.00 | 0.00 | 1 | 1014.4 |
| 20260508120010 | 60 | 208 | 0.0 | 0.0 | 0.00 | 0.00 | 0.00 | 1 | 1014.1 |
| 20260508114505 | 60 | 208 | 0.0 | 0.0 | 0.00 | 0.00 | 0.00 | 1 | 1014.2 |
| 20260508113001 | 60 | 209 | 0.0 | 0.0 | 0.00 | 0.00 | 0.00 | 1 | 1014.2 |
| 20260508111557 | 60 | 209 | 0.0 | 0.0 | 0.00 | 0.00 | 0.00 | 1 | 1014.1 |
| 20260508110056 | 60 | 209 | 0.0 | 0.0 | 0.00 | 0.00 | 0.00 | 1 | 1014.4 |
| 20260508104616 | 60 | 208 | 0.0 | 0.0 | 0.00 | 0.00 | 0.00 | 1 | 1014.2 |
| 20260508103046 | 60 | 208 | 0.0 | 0.0 | 0.00 | 0.00 | 0.00 | 1 | 1014.0 |
| 20260508101541 | 60 | 208 | 0.0 | 0.0 | 0.00 | 0.00 | 0.00 | 1 | 1013.2 |
| 20260508100034 | 60 | 208 | 0.0 | 0.0 | 0.00 | 0.00 | 0.00 | 1 | 1013.4 |
| 20260508094530 | 60 | 208 | 0.0 | 0.0 | 0.00 | 0.00 | 0.00 | 1 | 1013.6 |
| 20260508093026 | 60 | 208 | 0.0 | 0.0 | 0.00 | 0.00 | 0.00 | 1 | 1013.8 |
| 20260508091521 | 60 | 208 | 0.0 | 0.0 | 0.00 | 0.00 | 0.00 | 1 | 1013.6 |
| 20260508090018 | 60 | 208 | 0.0 | 0.0 | 0.00 | 0.00 | 0.00 | 1 | 1013.3 |
| 20260508084512 | 61 | 208 | 0.0 | 0.0 | 0.00 | 0.00 | 0.00 | 1 | 1013.7 |
| 20260508083008 | 60 | 208 | 0.0 | 0.0 | 0.00 | 0.00 | 0.00 | 1 | 1013.4 |
| 20260508081504 | 61 | 208 | 0.0 | 0.0 | 0.00 | 0.00 | 0.00 | 1 | 1013.9 |
| 20260508080110 | 61 | 208 | 0.0 | 0.0 | 0.00 | 0.00 | 0.00 | 1 | 1014.4 |
| 20260508074556 | 61 | 209 | 0.0 | 0.0 | 0.00 | 0.00 | 0.00 | 1 | 1014.8 |
| 20260508073052 | 61 | 209 | 0.0 | 0.0 | 0.00 | 0.00 | 0.00 | 1 | 1014.8 |
| 20260508071549 | 61 | 208 | 0.0 | 0.0 | 0.00 | 0.00 | 0.00 | 1 | 1014.9 |
| 20260508070128 | 62 | 208 | 0.0 | 0.0 | 0.00 | 0.00 | 0.00 | 15 | 1014.7 |
| 20260508064540 | 62 | 208 | 0.0 | 0.0 | 0.00 | 0.00 | 0.00 | 27 | 1014.6 |
| 20260508063037 | 62 | 208 | 0.0 | 0.0 | 0.00 | 0.00 | 0.00 | 27 | 1014.8 |
| 20260508061537 | 61 | 208 | 0.0 | 0.0 | 0.00 | 0.00 | 0.00 | 29 | 1014.8 |
| 20260508060034 | 61 | 208 | 0.0 | 0.0 | 0.00 | 0.00 | 0.00 | 35 | 1015.1 |
| 20260508054532 | 61 | 208 | 0.0 | 0.0 | 0.00 | 0.00 | 0.00 | 37 | 1015.2 |
| 20260508053030 | 62 | 209 | 0.0 | 0.0 | 0.00 | 0.00 | 0.00 | 39 | 1015.2 |
| 20260508051530 | 62 | 208 | 0.0 | 0.0 | 0.00 | 0.00 | 0.00 | 44 | 1015.3 |
| 20260508050024 | 62 | 209 | 0.0 | 0.0 | 0.00 | 0.00 | 0.00 | 48 | 1015.1 |
| 20260508044521 | 62 | 208 | 0.0 | 0.0 | 0.00 | 0.00 | 0.00 | 50 | 1015.2 |
| 20260508043025 | 62 | 209 | 0.0 | 0.0 | 0.00 | 0.00 | 0.00 | 51 | 1015.1 |
| 20260508041512 | 62 | 208 | 0.0 | 0.0 | 0.00 | 0.00 | 0.00 | 53 | 1015.2 |
| 20260508040017 | 62 | 208 | 0.0 | 0.0 | 0.00 | 0.00 | 0.00 | 54 | 1015.1 |
| 20260508034510 | 62 | 208 | 0.0 | 0.0 | 0.00 | 0.00 | 0.00 | 56 | 1014.8 |
| 20260508033058 | 62 | 208 | 0.0 | 0.0 | 0.00 | 0.00 | 0.00 | 57 | 1014.8 |
| 20260508031558 | 62 | 209 | 0.0 | 0.0 | 0.00 | 0.00 | 0.00 | 59 | 1014.5 |
| 20260508030059 | 62 | 208 | 0.0 | 0.0 | 0.00 | 0.00 | 0.00 | 59 | 1014.5 |
| 20260508024556 | 63 | 207 | 0.0 | 0.0 | 0.00 | 0.00 | 0.00 | 59 | 1014.5 |
| 20260508023046 | 63 | 208 | 0.0 | 0.0 | 0.00 | 0.00 | 0.00 | 59 | 1014.4 |
| 20260508021539 | 64 | 208 | 0.0 | 0.0 | 0.00 | 0.00 | 0.00 | 60 | 1014.4 |
| 20260508020035 | 64 | 208 | 0.0 | 0.0 | 0.00 | 0.00 | 0.00 | 60 | 1014.2 |
| 20260508014531 | 64 | 208 | 0.0 | 0.0 | 0.00 | 0.00 | 0.00 | 60 | 1014.3 |
| 20260508013026 | 65 | 208 | 0.0 | 0.0 | 0.00 | 0.00 | 0.00 | 60 | 1014.2 |
| 20260508011522 | 65 | 208 | 0.0 | 0.0 | 0.00 | 0.00 | 0.00 | 60 | 1014.2 |
| 20260508010024 | 66 | 207 | 0.0 | 0.0 | 0.00 | 0.00 | 0.00 | 60 | 1014.3 |
| 20260508004516 | 66 | 208 | 0.0 | 0.0 | 0.00 | 0.00 | 0.00 | 60 | 1014.3 |
| 20260508003011 | 67 | 208 | 0.0 | 0.0 | 0.00 | 0.00 | 0.00 | 59 | 1014.2 |
| 20260508001507 | 67 | 208 | 0.0 | 0.0 | 0.00 | 0.00 | 0.00 | 59 | 1014.4 |
| 20260508000003 | 68 | 208 | 0.0 | 0.0 | 0.00 | 0.00 | 0.00 | 58 | 1014.5 |
| 20260507234559 | 68 | 200 | 0.0 | 0.9 | 0.00 | 0.00 | 0.00 | 58 | 1014.6 |
| 20260507233054 | 69 | 246 | 0.0 | 0.9 | 0.00 | 0.00 | 0.00 | 58 | 1014.5 |
| 20260507231550 | 69 | 205 | 0.0 | 0.9 | 0.00 | 0.00 | 0.00 | 58 | 1014.5 |
| 20260507230046 | 69 | 136 | 0.0 | 0.0 | 0.00 | 0.00 | 0.00 | 57 | 1014.6 |
| 20260507224541 | 69 | 136 | 0.0 | 0.0 | 0.00 | 0.01 | 0.00 | 57 | 1014.7 |
| 20260507223037 | 70 | 96 | 0.0 | 0.9 | 0.00 | 0.01 | 0.00 | 57 | 1014.8 |
| 20260507221533 | 70 | 172 | 0.0 | 0.0 | 0.00 | 0.01 | 0.00 | 56 | 1014.8 |
| 20260507220028 | 71 | 172 | 0.0 | 0.0 | 0.00 | 0.01 | 0.00 | 54 | 1014.8 |
| 20260507214524 | 71 | 165 | 0.0 | 0.0 | 0.00 | 0.01 | 0.00 | 56 | 1014.9 |
| 20260507213021 | 71 | 165 | 0.0 | 0.0 | 0.00 | 0.01 | 0.00 | 53 | 1015.1 |
| 20260507211515 | 71 | 165 | 0.0 | 0.0 | 0.00 | 0.01 | 0.00 | 56 | 1015.5 |
| 20260507210011 | 71 | 165 | 0.0 | 0.0 | 0.00 | 0.01 | 0.00 | 55 | 1015.8 |
| 20260507204509 | 71 | 165 | 0.0 | 0.0 | 0.00 | 0.01 | 0.00 | 53 | 1015.7 |